Flag for Australia Weather past 2 weeks in Currie, Tasmania, Australia

Now
65 °F

Scattered clouds.


Feels Like: 65 °F
Forecast: 60 / 66 °F
Wind: 14 mph from Northwest

Location: King Island Airport

Current Time: Mar 30, 2015 at 1:25:43 PM

Latest Report: Mar 30, 2015 at 12:00 PM


Visibility: N/A

Pressure: 30.24 "Hg

Humidity: 75%

Dew point: 57 °F

Location of CurrieLocation

Historic Weather in Currie — Graph

°F

Currie temperature yesterday

Maximum temperature yesterday: 65 °F (at 4:00 PM)
Minimum temperature yesterday: 58 °F (at 12:00 AM)
Average temperature yesterday: 61 °F

Past Weeks' High & Low Weather Summary

 TemperatureHumidityPressure
High73 °F (Mar 22, 3:00 PM)98% (Mar 18, 6:00 AM)30.38 "Hg (Mar 18, 6:00 AM)
Low44 °F (Mar 21, 3:00 AM)45% (Mar 22, 3:00 PM)29.47 "Hg (Mar 18, 4:00 AM)
Average59 °F76%29.98 "Hg
* Reported Mar 15 12:00 Noon — Mar 30 12:00 Noon, Currie, Weather by CustomWeather, © 2015

Note: Actual official high and low records may vary slightly from our data, if they occured in-between our weather recording intervals... More about our weather records

Advertising

Currie weather history for previous 24 hours

 ConditionsComfort  
Time TempWeatherWind HumidityBarometerVisibility
12:00 PM
Mon, Mar 30
65 °FScattered clouds.14 mph75%30.24 "HgN/A
11:00 AM65 °FMild.15 mph80%30.24 "HgN/A
10:00 AM63 °FMild.14 mph85%30.23 "HgN/A
9:00 AM61 °FOvercast.13 mph87%30.21 "HgN/A
7:00 AM60 °FCool.12 mph91%30.18 "HgN/A
6:00 AM60 °FOvercast.14 mph91%30.17 "HgN/A
5:00 AM60 °FCool.14 mph92%30.16 "HgN/A
4:00 AM59 °FCool.10 mph94%30.16 "HgN/A
3:00 AM59 °FCool.12 mph91%30.17 "HgN/A
2:00 AM59 °FCool.10 mph94%30.17 "HgN/A
1:00 AM59 °FCool.12 mph92%30.18 "HgN/A
12:00 AM60 °FPassing clouds.10 mph91%30.18 "HgN/A
11:00 PM
Sun, Mar 29
60 °FCool.13 mph91%30.19 "HgN/A
10:00 PM60 °FCool.14 mph90%30.19 "HgN/A
9:00 PM60 °FPassing clouds.15 mph89%30.18 "HgN/A
8:00 PM61 °FCool.14 mph89%30.17 "HgN/A
7:00 PM62 °FCool.17 mph84%30.15 "HgN/A
6:00 PM63 °FOvercast.17 mph82%30.14 "HgN/A
5:00 PM64 °FMild.17 mph76%30.14 "HgN/A
4:00 PM65 °FMild.18 mph75%30.14 "HgN/A
3:00 PM63 °FOvercast.20 mph80%30.14 "HgN/A
1:00 PM64 °FMild.21 mph75%30.15 "HgN/A
Weather by CustomWeather, © 2015

See weather overviewHow to use our weather pages